[[{"header":{"parameterUnit":"m.s-1","parameterCategory":1,"la1":30.2991,"la2":30.254,"lo1":-89.0895,"lo2":-89.0444,"dy":0.0017,"dx":0.0017,"nx":28,"ny":28,"refTime":"2025-07-21T21:00:00:Z","depth":0,"parameterNumber":2,"parameterNumberName":"U-component_of_WINDS"},"data":[0,0,0,0,0,0,0,0,0,0,0,0,0,0,0,0,0,0,0,0,0,0,0,0,0,0,0,0,0,0,0,0,0,0,0,0,0,0,0,0,0,0,0,0,0,0,0,0,0,0,0,0,0,0,0,0,0,0,3.5307,3.5307,0,3.5296,3.5296,3.5296,3.5192,3.519,3.5187,3.5185,3.5175,3.5177,3.5179,0,0,0,0,0,0,0,0,0,0,0,0,0,3.524,3.5242,3.5307,3.5307,3.5306,3.5296,3.5296,3.5296,3.5193,3.519,3.5186,3.5184,3.5174,3.5176,3.5179,0,0,0,0,0,0,0,0,0,0,0,0,0,3.5253,3.5242,3.5307,3.5254,3.5249,3.5296,3.5296,3.5296,3.5193,3.519,3.5186,3.5182,3.5173,3.5176,3.5179,3.5277,0,0,3.5189,3.5191,0,0,0,0,0,0,0,0,3.5252,3.5256,3.5262,3.5258,3.5252,3.5241,3.5268,3.5289,3.5194,3.5215,3.5185,3.518,3.52,3.5201,3.5207,3.5276,3.5276,3.5189,3.5191,3.5193,3.5194,0,0,0,0,0,0,0,3.5252,3.5256,3.5302,3.5262,3.5256,3.5231,3.5229,3.5272,3.5229,3.5212,3.5205,3.5205,3.5197,3.5205,3.5206,3.5276,3.5189,3.5192,3.5194,3.5195,3.5426,3.543,0,0,0,0,0,0,3.5258,3.5255,3.5303,3.5302,3.5243,3.5236,3.5233,3.5249,3.5228,3.5222,3.5208,3.52,3.5201,3.5203,3.5206,3.532,3.5193,3.5196,3.5198,3.5422,3.5427,3.5432,0,0,0,0,0,0,3.5257,3.5263,3.5303,3.5277,3.528,3.5241,3.526,3.5251,3.5258,3.5225,3.5217,3.5224,3.5198,3.5201,3.526,3.5318,3.5197,3.52,3.5417,3.5424,3.5429,3.5548,0,0,0,0,0,0,3.5255,3.5263,3.5299,3.5278,3.5282,3.5358,3.5263,3.5253,3.5264,3.5253,3.5238,3.5232,3.5195,3.5256,3.5263,3.532,3.5203,3.5412,3.542,3.5427,3.5539,3.5558,3.5574,0,0,0,0,0,3.5253,3.5333,3.5302,3.5308,3.5326,3.5361,3.5363,3.5319,3.5269,3.5306,3.5285,3.5232,3.531,3.5263,3.527,3.5329,3.5408,3.5418,3.5427,3.5531,3.5554,3.5574,0,0,0,0,0,0,3.5362,3.5329,3.5294,3.5369,3.5369,3.5344,3.5388,3.5345,3.5359,3.5348,3.5293,3.5291,3.5359,3.5349,3.5297,3.5423,3.535,3.5362,3.5427,3.5449,3.5466,3.5467,3.5205,0,0,0,0,0,3.5394,3.5425,3.5395,3.5465,3.5466,3.5428,3.5441,3.5408,3.5405,3.5405,3.5388,3.5388,3.5412,3.543,3.545,3.5537,3.5533,3.5581,3.5599,3.5613,3.5624,3.5671,3.5693,3.5463,3.5463,3.5462,0,0,3.5462,3.5448,3.5471,3.5486,3.5482,3.5516,3.5428,3.5468,3.5493,3.541,3.5466,3.5454,3.545,3.5524,3.5556,3.5519,3.5687,3.5625,3.5637,3.564,3.5683,3.5705,3.5725,3.5469,3.5468,3.5467,0,0,3.5603,3.5595,3.5653,3.5651,3.5646,3.562,3.5634,3.5616,3.5605,3.5659,3.5599,3.5628,3.5671,3.5672,3.5678,3.5822,3.5775,3.583,3.5922,3.5969,3.5987,3.6003,3.6056,3.6075,3.5841,3.5841,3.5841,0,3.5688,3.5737,3.5688,3.5733,3.5742,3.5669,3.5728,3.5728,3.5731,3.5739,3.5697,3.5751,3.5743,3.5817,3.5853,3.5859,3.5875,3.5832,3.5988,3.6003,3.6018,3.6068,3.6088,3.5848,3.5847,3.5846,3.5846,0,3.5843,3.5878,3.5925,3.593,3.5944,3.5996,3.5956,3.5976,3.5942,3.5921,3.5979,3.5967,3.5985,3.6,3.5966,3.607,3.6047,3.5998,3.5923,3.6047,3.6094,3.6112,3.5858,3.5855,3.5853,3.5852,0,0,3.6052,3.603,3.6048,3.6051,3.604,3.6067,3.6115,3.6133,3.6153,3.6157,3.6198,3.6237,3.6191,3.6198,3.6164,3.6205,3.6322,3.615,3.6149,3.6184,3.6438,3.6477,3.65,3.6291,3.6294,3.6297,3.6439,0,3.619,3.6272,3.623,3.6318,3.6351,3.6283,3.6325,3.6324,3.6306,3.6332,3.6312,3.6341,3.6278,3.6282,3.6319,3.63,3.6373,3.6289,3.6329,3.6331,3.6334,3.6524,3.6564,3.67,3.6457,3.646,3.6462,0,3.6361,3.6374,3.6465,3.645,3.6463,3.6502,3.6516,3.6541,3.6539,3.6523,3.6532,3.6489,3.6536,3.6462,3.6529,3.6473,3.6487,3.648,3.6484,3.6487,3.6405,3.6534,3.6741,3.6763,3.649,3.6487,3.6485,0,3.6507,3.6546,3.6607,3.661,3.6594,3.6624,3.6619,3.6613,3.6627,3.6639,3.6648,3.6666,3.6676,3.6691,3.6654,3.6603,3.6727,3.6649,3.6716,3.6718,3.6746,3.6745,3.6961,3.6753,3.6753,3.6752,3.6752,0,3.6666,3.6725,3.6672,3.671,3.6774,3.6726,3.6792,3.6779,3.6775,3.6809,3.6751,3.6785,3.6733,3.6762,3.6734,3.6794,3.6799,3.6788,3.678,3.6794,3.6796,3.6804,3.6794,3.6757,3.6756,3.6755,3.6754,0,3.6841,3.6807,3.6869,3.6849,3.6846,3.6894,3.6878,3.6912,3.689,3.6935,3.6942,3.6909,3.694,3.6904,3.6932,3.6913,3.6996,3.6973,3.6997,3.6991,3.7061,3.7056,3.7291,3.732,3.7092,3.7094,3.7096,0,3.6945,3.6989,3.6975,3.6994,3.6992,3.7023,3.7037,3.6992,3.7009,3.7012,3.7046,3.7072,3.7091,3.7144,3.7123,3.7145,3.7123,3.7204,3.7126,3.714,3.7127,3.7125,3.7131,3.722,3.7223,3.7225,3.7227,0,3.7135,3.7117,3.7139,3.7158,3.7177,3.7188,3.7196,3.7215,3.7167,3.719,3.7222,3.7236,3.7266,3.7293,3.7309,3.7304,3.7259,3.7252,3.7269,3.7285,3.7298,3.7294,3.7042,3.7247,3.7245,3.7243,3.7242,3.7241,3.7279,3.7316,3.7312,3.734,3.7341,3.7349,3.7381,3.7364,3.7389,3.741,3.7381,3.7421,3.7419,3.7436,3.7437,3.7468,3.7433,3.7458,3.7464,3.7471,3.7483,3.7291,3.747,3.747,3.7469,3.7468,3.7468,0,3.7467,3.7462,3.7488,3.7501,3.7524,3.7478,3.7484,3.7507,3.7542,3.7544,3.7564,3.7602,3.7628,3.7609,3.7632,3.7661,3.7641,3.7669,3.7667,3.7667,3.7511,3.7495,3.7685,3.7685,3.7685,3.7685,3.7685,3.7685,3.7568,3.7629,3.7611,3.7672,3.7665,3.7704,3.7712,3.772,3.7722,3.7766,3.7788,3.7776,3.777,3.7792,3.7815,3.7809,3.7821,3.7857,3.7844,3.7699,3.7678,3.7658,3.7642,3.786,3.786,3.7997,3.7998,3.7999]},{"header":{"parameterUnit":"m.s-1","parameterCategory":1,"la1":30.2991,"la2":30.254,"lo1":-89.0895,"lo2":-89.0444,"dy":0.0017,"dx":0.0017,"nx":28,"ny":28,"refTime":"2025-07-21T21:00:00:Z","depth":0,"parameterNumber":3,"parameterNumberName":"V-component_of_WINDS"},"data":[0,0,0,0,0,0,0,0,0,0,0,0,0,0,0,0,0,0,0,0,0,0,0,0,0,0,0,0,0,0,0,0,0,0,0,0,0,0,0,0,0,0,0,0,0,0,0,0,0,0,0,0,0,0,0,0,0,0,-2.7201,-2.7202,0,-2.7236,-2.7236,-2.7237,-2.7194,-2.7193,-2.7191,-2.7189,-2.7224,-2.7227,-2.7229,0,0,0,0,0,0,0,0,0,0,0,0,0,-2.7099,-2.7101,-2.7201,-2.7202,-2.7202,-2.7236,-2.7236,-2.7237,-2.7194,-2.7192,-2.7191,-2.7189,-2.7224,-2.7226,-2.7229,0,0,0,0,0,0,0,0,0,0,0,0,0,-2.7139,-2.7102,-2.7201,-2.7185,-2.7184,-2.7236,-2.7236,-2.7237,-2.7195,-2.7192,-2.719,-2.7188,-2.7223,-2.7226,-2.723,-2.7299,0,0,-2.7241,-2.7242,0,0,0,0,0,0,0,0,-2.7137,-2.7143,-2.7187,-2.7186,-2.7185,-2.7208,-2.7213,-2.7258,-2.7195,-2.7191,-2.7189,-2.7187,-2.7221,-2.7224,-2.7236,-2.73,-2.7302,-2.7241,-2.7243,-2.7245,-2.7246,0,0,0,0,0,0,0,-2.7134,-2.7141,-2.7215,-2.7188,-2.7187,-2.7176,-2.7179,-2.7221,-2.7219,-2.7191,-2.7188,-2.7193,-2.722,-2.7233,-2.7237,-2.7302,-2.7241,-2.7244,-2.7246,-2.7248,-2.7426,-2.7429,0,0,0,0,0,0,-2.7133,-2.7139,-2.7214,-2.7216,-2.7155,-2.718,-2.7183,-2.7203,-2.7218,-2.7218,-2.7195,-2.719,-2.7228,-2.7232,-2.7238,-2.732,-2.7245,-2.7248,-2.725,-2.7424,-2.7427,-2.743,0,0,0,0,0,0,-2.7131,-2.714,-2.7212,-2.7177,-2.7185,-2.7184,-2.7207,-2.7205,-2.7218,-2.7221,-2.722,-2.7208,-2.7226,-2.7233,-2.7284,-2.7321,-2.725,-2.7253,-2.7421,-2.7425,-2.7428,-2.7486,0,0,0,0,0,0,-2.7129,-2.714,-2.7166,-2.7178,-2.7187,-2.7259,-2.7209,-2.7208,-2.7224,-2.7219,-2.7233,-2.7233,-2.7225,-2.7279,-2.7288,-2.7324,-2.7256,-2.7417,-2.7422,-2.7427,-2.748,-2.7491,-2.75,0,0,0,0,0,-2.7125,-2.7181,-2.7168,-2.7177,-2.722,-2.7261,-2.7266,-2.7255,-2.7227,-2.7254,-2.7256,-2.7233,-2.7315,-2.7285,-2.7294,-2.7332,-2.7415,-2.7421,-2.7427,-2.7476,-2.7489,-2.75,0,0,0,0,0,0,-2.7173,-2.7182,-2.7168,-2.7229,-2.7244,-2.7254,-2.7286,-2.7269,-2.7293,-2.7287,-2.7273,-2.7276,-2.7331,-2.7337,-2.7303,-2.7401,-2.7361,-2.7369,-2.7395,-2.7407,-2.7417,-2.7414,-2.7259,0,0,0,0,0,-2.7191,-2.7223,-2.7229,-2.7282,-2.7291,-2.7288,-2.7305,-2.7295,-2.7311,-2.7317,-2.7323,-2.7339,-2.7368,-2.7388,-2.7415,-2.7481,-2.7484,-2.7512,-2.7522,-2.753,-2.7537,-2.7573,-2.7586,-2.7449,-2.7449,-2.7449,0,0,-2.7227,-2.7236,-2.7258,-2.7292,-2.7303,-2.7337,-2.7293,-2.7331,-2.7356,-2.7323,-2.7372,-2.7377,-2.7394,-2.7453,-2.7479,-2.7459,-2.7576,-2.7537,-2.7544,-2.7547,-2.7581,-2.7594,-2.7605,-2.7453,-2.7452,-2.7451,0,0,-2.7312,-2.7322,-2.7368,-2.738,-2.7397,-2.7395,-2.7406,-2.7418,-2.742,-2.7469,-2.7445,-2.7475,-2.7526,-2.7539,-2.7553,-2.7644,-2.7624,-2.7653,-2.7704,-2.7739,-2.775,-2.776,-2.7793,-2.7805,-2.766,-2.766,-2.766,0,-2.7355,-2.7406,-2.7393,-2.7433,-2.7449,-2.7421,-2.7468,-2.748,-2.7505,-2.7517,-2.7495,-2.7559,-2.7568,-2.763,-2.7653,-2.7664,-2.7677,-2.7651,-2.775,-2.7759,-2.7768,-2.7799,-2.7812,-2.7663,-2.7663,-2.7663,-2.7662,0,-2.7459,-2.7494,-2.7529,-2.7555,-2.7575,-2.7618,-2.7612,-2.7634,-2.7623,-2.7623,-2.7674,-2.7684,-2.7714,-2.7728,-2.7717,-2.7789,-2.7776,-2.7752,-2.7711,-2.7785,-2.7814,-2.7826,-2.7668,-2.7667,-2.7666,-2.7665,0,0,-2.7574,-2.7593,-2.7606,-2.7618,-2.7636,-2.7663,-2.7705,-2.7734,-2.7753,-2.7772,-2.7807,-2.7851,-2.7829,-2.7845,-2.7835,-2.7866,-2.7938,-2.7838,-2.7838,-2.7857,-2.8019,-2.8038,-2.8052,-2.7925,-2.7927,-2.7929,-2.8018,0,-2.7659,-2.7732,-2.7722,-2.7792,-2.7825,-2.7799,-2.7836,-2.7851,-2.7852,-2.788,-2.7882,-2.7914,-2.7882,-2.7891,-2.7921,-2.7923,-2.7971,-2.7917,-2.7958,-2.796,-2.7955,-2.8067,-2.8087,-2.817,-2.8029,-2.8031,-2.8033,0,-2.7768,-2.7791,-2.7865,-2.7878,-2.7892,-2.7925,-2.7951,-2.7978,-2.7995,-2.7994,-2.8012,-2.7997,-2.8039,-2.7998,-2.8056,-2.802,-2.8036,-2.804,-2.8043,-2.8047,-2.8001,-2.8074,-2.8196,-2.8209,-2.805,-2.8049,-2.8048,0,-2.7846,-2.7895,-2.7946,-2.7957,-2.7973,-2.7997,-2.8006,-2.802,-2.8038,-2.8061,-2.8073,-2.8101,-2.8116,-2.8138,-2.8131,-2.8101,-2.8191,-2.8149,-2.8192,-2.8192,-2.8212,-2.8211,-2.8339,-2.8222,-2.8222,-2.8222,-2.8221,0,-2.7942,-2.7988,-2.7981,-2.8012,-2.8063,-2.8052,-2.8103,-2.8108,-2.8121,-2.8153,-2.8132,-2.8162,-2.8151,-2.8181,-2.8176,-2.8226,-2.8233,-2.8233,-2.8231,-2.8235,-2.8236,-2.8246,-2.824,-2.8225,-2.8224,-2.8224,-2.8223,0,-2.8037,-2.8034,-2.8088,-2.81,-2.8104,-2.8141,-2.8151,-2.8181,-2.818,-2.8221,-2.823,-2.823,-2.8264,-2.826,-2.8298,-2.8294,-2.8356,-2.8347,-2.8351,-2.8349,-2.8392,-2.8389,-2.8532,-2.8551,-2.8421,-2.8422,-2.8423,0,-2.8099,-2.8134,-2.815,-2.817,-2.818,-2.8212,-2.8231,-2.8222,-2.8242,-2.8264,-2.8291,-2.8324,-2.8349,-2.8405,-2.8408,-2.8438,-2.8429,-2.8478,-2.8434,-2.8437,-2.8431,-2.8429,-2.8433,-2.8486,-2.8488,-2.8489,-2.849,0,-2.8209,-2.8207,-2.8235,-2.8263,-2.8286,-2.8308,-2.8327,-2.8345,-2.8337,-2.8361,-2.8396,-2.8416,-2.8455,-2.8488,-2.8515,-2.8524,-2.8506,-2.8504,-2.8515,-2.852,-2.8521,-2.8522,-2.8375,-2.8501,-2.85,-2.8499,-2.8498,-2.8498,-2.829,-2.8321,-2.8337,-2.8369,-2.8383,-2.8402,-2.843,-2.8434,-2.8463,-2.8495,-2.8487,-2.8527,-2.8543,-2.8579,-2.859,-2.8621,-2.8604,-2.862,-2.8624,-2.8629,-2.8634,-2.8516,-2.8626,-2.8626,-2.8625,-2.8625,-2.8625,0,-2.84,-2.841,-2.8439,-2.8468,-2.8493,-2.8475,-2.8495,-2.8518,-2.8554,-2.857,-2.8596,-2.8637,-2.8669,-2.8675,-2.8705,-2.8729,-2.8722,-2.8738,-2.8736,-2.8738,-2.8648,-2.8635,-2.8743,-2.8743,-2.8743,-2.8743,-2.8743,-2.8743,-2.846,-2.8511,-2.851,-2.8568,-2.8576,-2.8616,-2.8629,-2.8647,-2.866,-2.8707,-2.8733,-2.8737,-2.875,-2.8782,-2.881,-2.8811,-2.8824,-2.8843,-2.8841,-2.8756,-2.8745,-2.8733,-2.8721,-2.8845,-2.8846,-2.8929,-2.893,-2.893]}]]